CW0608 Weather Reports


time (UTC)temp
C
wind
direction
speed
KPH
gust
KPH
rain 1hr
cm
rain 24hr
cm
rain mn
cm
humidity
%
barometer
mb
20260504050306 5 255 0.0 0.0 0.00 0.00 0.00 86 1016.5
20260504045805 5 255 0.0 3.2 0.00 0.00 0.00 86 1016.6
20260504044805 5 255 1.6 3.2 0.00 0.00 0.00 86 1016.7
20260504043805 5 255 0.0 1.6 0.00 0.00 0.00 84 1016.7
20260504043305 5 255 1.6 3.2 0.00 0.00 0.00 84 1016.7
20260504042805 5 255 0.0 4.8 0.00 0.00 0.00 84 1016.6
20260504041305 5 255 1.6 4.8 0.00 0.00 0.00 85 1016.4
20260504040814 5 255 1.6 4.8 0.00 0.00 0.00 84 1016.3
20260504040306 5 255 1.6 3.2 0.00 0.00 0.00 83 1016.3
20260504035805 5 255 1.6 4.8 0.00 0.00 0.00 81 1016.5
20260504035305 5 255 1.6 4.8 0.00 0.00 0.00 80 1016.5
20260504034805 6 255 0.0 3.2 0.00 0.00 0.00 79 1016.4
20260504034305 6 255 0.0 4.8 0.00 0.00 0.00 79 1016.4
20260504031804 6 255 1.6 3.2 0.00 0.00 0.00 79 1016.2
20260504030804 6 255 0.0 1.6 0.00 0.00 0.00 80 1016.1
20260504025805 6 255 0.0 3.2 0.00 0.00 0.00 76 1016.2
20260504022305 7 255 1.6 3.2 0.00 0.00 0.00 71 1016.0
20260504015806 8 255 0.0 3.2 0.00 0.00 0.00 68 1016.1
20260504013806 8 255 3.2 3.2 0.00 0.00 0.00 66 1016.1
20260504013305 8 255 0.0 0.0 0.00 0.00 0.00 65 1016.0
20260504011805 8 255 0.0 0.0 0.00 0.00 0.00 64 1015.9
20260504011305 9 255 0.0 0.0 0.00 0.00 0.00 64 1015.9
20260504010805 9 255 0.0 0.0 0.00 0.00 0.00 62 1015.8
20260504004805 10 255 0.0 0.0 0.00 0.00 0.00 60 1015.7
20260504004305 10 255 0.0 0.0 0.00 0.00 0.00 58 1015.6
20260504003306 11 255 0.0 0.0 0.00 0.00 0.00 55 1015.5
20260504002804 11 255 0.0 0.0 0.00 0.00 0.00 54 1015.5
20260504002304 11 255 0.0 0.0 0.00 0.00 0.00 54 1015.3
20260504001805 11 255 0.0 0.0 0.00 0.00 0.00 53 1015.3
20260504000806 12 255 0.0 4.8 0.00 0.00 0.00 53 1015.1
20260503235805 12 255 1.6 3.2 0.00 0.00 0.00 47 1015.1
20260503235304 12 255 0.0 4.8 0.00 0.00 0.00 49 1015.0
20260503234805 13 255 0.0 4.8 0.00 0.00 0.00 48 1014.9
20260503234304 13 255 0.0 4.8 0.00 0.00 0.00 48 1015.0
20260503233805 13 255 1.6 8.0 0.00 0.00 0.00 45 1014.8
20260503232306 14 259 1.6 16.1 0.00 0.00 0.00 41 1014.7
20260503231805 15 264 8.0 16.1 0.00 0.00 0.00 38 1014.8
20260503230305 15 299 3.2 19.3 0.00 0.00 0.00 38 1014.8
20260503225805 15 260 9.7 22.5 0.00 0.00 0.00 37 1014.8
20260503225305 15 231 11.3 22.5 0.00 0.00 0.00 36 1014.8
20260503224805 15 274 8.0 19.3 0.00 0.00 0.00 36 1014.9
20260503223804 16 242 4.8 12.9 0.00 0.00 0.00 36 1014.8
20260503223305 16 250 4.8 12.9 0.00 0.00 0.00 36 1014.8
20260503222806 16 288 4.8 11.3 0.00 0.00 0.00 39 1014.8
20260503222304 16 268 4.8 12.9 0.00 0.00 0.00 36 1014.8
20260503220804 16 269 8.0 24.1 0.00 0.00 0.00 34 1014.9
20260503220304 16 285 9.7 19.3 0.00 0.00 0.00 35 1014.9
20260503215304 16 287 6.4 25.7 0.00 0.00 0.00 34 1014.8
20260503214304 16 273 9.7 25.7 0.00 0.00 0.00 35 1014.9
20260503212806 16 306 4.8 25.7 0.00 0.00 0.00 33 1014.9
20260503212305 16 284 11.3 25.7 0.00 0.00 0.00 33 1014.8
20260503204805 16 283 11.3 25.7 0.00 0.00 0.00 35 1015.0
20260503203805 16 269 8.0 22.5 0.00 0.00 0.00 36 1015.0
20260503203304 16 288 4.8 24.1 0.00 0.00 0.00 37 1015.0
20260503195805 16 246 11.3 25.7 0.00 0.00 0.00 35 1015.3
20260503195305 16 322 8.0 32.2 0.00 0.00 0.00 37 1015.4
20260503194806 16 315 14.5 32.2 0.00 0.00 0.00 37 1015.5
20260503194305 16 277 6.4 25.7 0.00 0.00 0.00 36 1015.5
20260503193805 15 270 8.0 20.9 0.00 0.00 0.00 37 1015.6
20260503190805 15 248 9.7 25.7 0.00 0.00 0.00 40 1015.8
20260503190305 15 262 14.5 25.7 0.00 0.00 0.00 37 1015.9
20260503185804 15 285 11.3 19.3 0.00 0.00 0.00 39 1016.0
20260503185305 15 281 6.4 27.4 0.00 0.00 0.00 41 1016.0
20260503184806 15 263 9.7 27.4 0.00 0.00 0.00 38 1016.1
20260503184305 15 183 9.7 27.4 0.00 0.00 0.00 39 1016.1
20260503183806 15 270 9.7 19.3 0.00 0.00 0.00 38 1016.2
20260503182805 15 342 8.0 27.4 0.00 0.00 0.00 38 1016.4
20260503182305 15 329 9.7 20.9 0.00 0.00 0.00 41 1016.4
20260503180806 15 263 8.0 25.7 0.00 0.00 0.00 39 1016.4
20260503180305 14 263 14.5 32.2 0.00 0.00 0.00 38 1016.4
20260503175805 15 263 14.5 32.2 0.00 0.00 0.00 39 1016.5
20260503174804 13 252 8.0 29.0 0.00 0.00 0.00 40 1016.6
20260503174305 14 314 8.0 29.0 0.00 0.00 0.00 38 1016.7
20260503173804 15 291 14.5 29.0 0.00 0.00 0.00 38 1016.6
20260503173305 14 286 4.8 24.1 0.00 0.00 0.00 40 1016.4
20260503172805 14 309 9.7 32.2 0.00 0.00 0.00 41 1016.4
20260503171305 13 237 11.3 24.1 0.00 0.00 0.00 40 1016.7
20260503170304 14 286 6.4 20.9 0.00 0.00 0.00 39 1016.6
20260503140306 10 303 6.4 14.5 0.00 0.00 0.00 53 1017.6
20260503131305 8 299 4.8 24.1 0.00 0.00 0.00 58 1017.4
20260503130305 8 321 8.0 25.7 0.00 0.00 0.00 59 1017.3
20260503110805 5 267 9.7 22.5 0.00 0.00 0.00 71 1016.4
20260503110305 5 299 6.4 19.3 0.00 0.00 0.00 71 1016.3
20260503090304 5 268 3.2 19.3 0.00 0.00 0.00 71 1014.7
20260503080806 5 300 4.8 12.9 0.00 0.00 0.00 71 1014.4
20260503080305 5 277 4.8 16.1 0.00 0.00 0.00 71 1014.4
20260503072804 5 295 3.2 12.9 0.00 0.00 0.00 71 1014.0
20260503072305 6 291 4.8 14.5 0.00 0.00 0.00 71 1014.0
20260503071805 6 272 4.8 14.5 0.00 0.00 0.00 70 1014.0
20260503071304 6 310 4.8 12.9 0.00 0.00 0.00 70 1014.0